| time (UTC) | temp C | wind direction | speed KPH | gust KPH | rain 1hr cm | rain 24hr cm | rain mn cm | humidity % | barometer mb |
| 20260510060353 | 13 | 206 | 0.0 | 0.0 | 0.00 | 0.00 | 0.00 | 85 | 1008.7 |
| 20260510055849 | 13 | 206 | 0.0 | 0.0 | 0.00 | 0.00 | 0.00 | 85 | 1008.7 |
| 20260510055349 | 13 | 237 | 0.0 | 0.0 | 0.00 | 0.00 | 0.00 | 85 | 1008.6 |
| 20260510054842 | 13 | 161 | 0.0 | 0.0 | 0.00 | 0.00 | 0.00 | 86 | 1008.6 |
| 20260510054338 | 13 | 269 | 0.0 | 0.0 | 0.00 | 0.00 | 0.00 | 86 | 1008.6 |
| 20260510053833 | 13 | 237 | 0.0 | 0.0 | 0.00 | 0.00 | 0.00 | 86 | 1008.8 |
| 20260510052102 | 14 | 315 | 1.6 | 3.2 | 0.00 | 0.00 | 0.00 | 83 | 1008.9 |
| 20260510051557 | 14 | 315 | 1.6 | 3.2 | 0.00 | 0.00 | 0.00 | 83 | 1008.9 |
| 20260510051054 | 14 | 288 | 0.0 | 0.0 | 0.00 | 0.00 | 0.00 | 83 | 1009.0 |
| 20260510045609 | 13 | 179 | 0.0 | 1.6 | 0.00 | 0.00 | 0.00 | 83 | 1008.9 |
| 20260510045105 | 13 | 179 | 0.0 | 1.6 | 0.00 | 0.00 | 0.00 | 83 | 1008.9 |
| 20260510044602 | 13 | 227 | 0.0 | 0.0 | 0.00 | 0.00 | 0.00 | 83 | 1008.7 |
| 20260510044059 | 13 | 181 | 0.0 | 1.6 | 0.00 | 0.00 | 0.00 | 83 | 1008.9 |
| 20260510043555 | 14 | 208 | 0.0 | 0.0 | 0.00 | 0.00 | 0.00 | 82 | 1008.7 |
| 20260510043051 | 13 | 189 | 0.0 | 1.6 | 0.00 | 0.00 | 0.00 | 84 | 1008.6 |
| 20260510042550 | 13 | 229 | 0.0 | 0.0 | 0.00 | 0.00 | 0.00 | 85 | 1008.7 |
| 20260510042045 | 13 | 229 | 0.0 | 0.0 | 0.00 | 0.00 | 0.00 | 85 | 1008.7 |
| 20260510041542 | 13 | 229 | 0.0 | 0.0 | 0.00 | 0.00 | 0.00 | 85 | 1008.7 |
| 20260510041040 | 13 | 213 | 0.0 | 0.0 | 0.00 | 0.00 | 0.00 | 85 | 1008.4 |
| 20260510040536 | 13 | 213 | 0.0 | 0.0 | 0.00 | 0.00 | 0.00 | 85 | 1008.5 |
| 20260510035320 | 13 | 273 | 0.0 | 0.0 | 0.00 | 0.08 | 0.08 | 82 | 1008.4 |
| 20260510034816 | 13 | 273 | 0.0 | 0.0 | 0.00 | 0.08 | 0.08 | 82 | 1008.4 |
| 20260510034313 | 14 | 248 | 0.0 | 0.0 | 0.00 | 0.08 | 0.08 | 82 | 1008.3 |
| 20260510031945 | 15 | 230 | 0.0 | 0.0 | 0.00 | 0.08 | 0.08 | 79 | 1008.0 |
| 20260510031441 | 15 | 230 | 0.0 | 0.0 | 0.00 | 0.08 | 0.08 | 79 | 1008.0 |
| 20260510030936 | 15 | 245 | 0.0 | 0.0 | 0.00 | 0.08 | 0.08 | 79 | 1008.3 |
| 20260510030431 | 14 | 175 | 0.0 | 0.0 | 0.00 | 0.08 | 0.08 | 80 | 1007.9 |
| 20260510025908 | 15 | 250 | 0.0 | 0.0 | 0.00 | 0.08 | 0.08 | 80 | 1008.0 |
| 20260510025405 | 15 | 250 | 0.0 | 0.0 | 0.00 | 0.08 | 0.08 | 80 | 1008.0 |
| 20260510024902 | 15 | 250 | 0.0 | 0.0 | 0.00 | 0.08 | 0.08 | 80 | 1008.0 |
| 20260510024358 | 14 | 229 | 0.0 | 0.0 | 0.00 | 0.08 | 0.08 | 80 | 1008.2 |
| 20260510023854 | 14 | 239 | 0.0 | 0.0 | 0.00 | 0.08 | 0.08 | 80 | 1008.0 |
| 20260510023350 | 15 | 248 | 0.0 | 0.0 | 0.00 | 0.08 | 0.08 | 79 | 1008.0 |
| 20260510022438 | 15 | 268 | 0.0 | 0.0 | 0.00 | 0.08 | 0.08 | 79 | 1007.6 |
| 20260510021938 | 15 | 268 | 0.0 | 0.0 | 0.00 | 0.08 | 0.08 | 79 | 1007.6 |
| 20260510021436 | 15 | 300 | 0.0 | 1.6 | 0.00 | 0.08 | 0.08 | 79 | 1008.0 |
| 20260510020932 | 15 | 239 | 0.0 | 0.0 | 0.00 | 0.08 | 0.08 | 78 | 1007.6 |
| 20260510020427 | 15 | 263 | 0.0 | 0.0 | 0.00 | 0.08 | 0.08 | 79 | 1007.8 |
| 20260510015923 | 15 | 252 | 0.0 | 0.0 | 0.00 | 0.08 | 0.08 | 78 | 1007.8 |
| 20260510015419 | 15 | 255 | 0.0 | 0.0 | 0.00 | 0.08 | 0.08 | 79 | 1007.5 |
| 20260510014914 | 15 | 255 | 0.0 | 0.0 | 0.00 | 0.08 | 0.08 | 79 | 1007.5 |
| 20260510014412 | 15 | 254 | 0.0 | 0.0 | 0.00 | 0.08 | 0.08 | 79 | 1007.2 |
| 20260510013908 | 15 | 232 | 0.0 | 0.0 | 0.00 | 0.08 | 0.08 | 78 | 1007.3 |
| 20260510000450 | 18 | 204 | 0.0 | 0.0 | 0.00 | 0.08 | 0.08 | 65 | 1006.1 |
| 20260509235947 | 18 | 204 | 0.0 | 0.0 | 0.00 | 0.08 | 0.08 | 65 | 1006.1 |
| 20260509235444 | 18 | 251 | 0.0 | 0.0 | 0.00 | 0.08 | 0.08 | 65 | 1005.9 |
| 20260509234940 | 18 | 141 | 6.4 | 11.3 | 0.00 | 0.08 | 0.08 | 65 | 1005.9 |
| 20260509234437 | 18 | 356 | 0.0 | 0.0 | 0.00 | 0.08 | 0.08 | 64 | 1006.1 |
| 20260509233935 | 18 | 311 | 0.0 | 1.6 | 0.00 | 0.08 | 0.08 | 65 | 1005.9 |
| 20260509233432 | 18 | 226 | 0.0 | 0.0 | 0.00 | 0.08 | 0.08 | 65 | 1005.9 |
| 20260509232928 | 18 | 345 | 0.0 | 0.0 | 0.00 | 0.08 | 0.08 | 64 | 1005.9 |
| 20260509232426 | 18 | 137 | 1.6 | 3.2 | 0.00 | 0.08 | 0.08 | 64 | 1005.7 |
| 20260509231921 | 18 | 100 | 1.6 | 1.6 | 0.00 | 0.08 | 0.08 | 64 | 1006.0 |
| 20260509231418 | 18 | 297 | 0.0 | 1.6 | 0.00 | 0.08 | 0.08 | 63 | 1005.9 |
| 20260509230917 | 19 | 141 | 4.8 | 6.4 | 0.00 | 0.08 | 0.08 | 64 | 1005.6 |
| 20260509230413 | 19 | 6 | 0.0 | 0.0 | 0.00 | 0.08 | 0.08 | 62 | 1005.9 |
| 20260509225909 | 20 | 155 | 3.2 | 3.2 | 0.00 | 0.08 | 0.08 | 61 | 1005.8 |
| 20260509225406 | 20 | 168 | 6.4 | 9.7 | 0.00 | 0.08 | 0.08 | 60 | 1005.7 |
| 20260509224901 | 20 | 297 | 0.0 | 0.0 | 0.00 | 0.08 | 0.08 | 59 | 1006.0 |
| 20260509224357 | 20 | 358 | 6.4 | 6.4 | 0.00 | 0.08 | 0.08 | 59 | 1006.0 |
| 20260509223855 | 20 | 115 | 0.0 | 0.0 | 0.00 | 0.08 | 0.08 | 60 | 1006.0 |
| 20260509223351 | 19 | 90 | 9.7 | 12.9 | 0.00 | 0.08 | 0.08 | 60 | 1006.2 |
| 20260509222849 | 20 | 349 | 4.8 | 11.3 | 0.00 | 0.08 | 0.08 | 58 | 1006.1 |
| 20260509222348 | 20 | 322 | 3.2 | 6.4 | 0.00 | 0.08 | 0.08 | 57 | 1006.1 |
| 20260509221844 | 20 | 4 | 0.0 | 3.2 | 0.00 | 0.08 | 0.08 | 59 | 1006.2 |
| 20260509221342 | 20 | 93 | 0.0 | 1.6 | 0.00 | 0.08 | 0.08 | 59 | 1006.2 |
| 20260509220837 | 20 | 160 | 3.2 | 4.8 | 0.00 | 0.08 | 0.08 | 59 | 1006.1 |
| 20260509220333 | 20 | 56 | 4.8 | 9.7 | 0.00 | 0.08 | 0.08 | 58 | 1006.2 |
| 20260509215829 | 20 | 269 | 1.6 | 4.8 | 0.00 | 0.08 | 0.08 | 60 | 1006.2 |
| 20260509215326 | 20 | 161 | 6.4 | 6.4 | 0.00 | 0.08 | 0.08 | 60 | 1006.3 |
| 20260509214823 | 20 | 61 | 1.6 | 4.8 | 0.00 | 0.08 | 0.08 | 60 | 1006.4 |
| 20260509214320 | 20 | 318 | 1.6 | 3.2 | 0.00 | 0.08 | 0.08 | 60 | 1006.4 |
| 20260509213818 | 20 | 243 | 1.6 | 3.2 | 0.00 | 0.08 | 0.08 | 59 | 1006.2 |
| 20260509213313 | 19 | 181 | 9.7 | 12.9 | 0.00 | 0.08 | 0.08 | 61 | 1006.4 |
| 20260509212810 | 20 | 58 | 1.6 | 4.8 | 0.00 | 0.08 | 0.08 | 60 | 1006.2 |
| 20260509212308 | 20 | 27 | 6.4 | 6.4 | 0.00 | 0.08 | 0.08 | 60 | 1006.2 |
| 20260509211803 | 19 | 264 | 0.0 | 1.6 | 0.00 | 0.08 | 0.08 | 61 | 1006.2 |
| 20260509211259 | 19 | 264 | 0.0 | 1.6 | 0.00 | 0.08 | 0.08 | 61 | 1006.2 |
| 20260509210756 | 20 | 178 | 1.6 | 4.8 | 0.00 | 0.08 | 0.08 | 61 | 1006.3 |
| 20260509210254 | 20 | 138 | 4.8 | 4.8 | 0.00 | 0.08 | 0.08 | 60 | 1006.4 |
| 20260509205753 | 20 | 348 | 4.8 | 6.4 | 0.00 | 0.08 | 0.08 | 60 | 1006.4 |
| 20260509205248 | 20 | 139 | 1.6 | 3.2 | 0.00 | 0.08 | 0.08 | 60 | 1006.4 |
| 20260509204744 | 19 | 56 | 6.4 | 9.7 | 0.00 | 0.08 | 0.08 | 61 | 1006.4 |
| 20260509204241 | 18 | 354 | 6.4 | 12.9 | 0.00 | 0.08 | 0.08 | 63 | 1006.2 |
| 20260509203737 | 18 | 354 | 6.4 | 12.9 | 0.00 | 0.08 | 0.08 | 63 | 1006.2 |
| 20260509203235 | 19 | 247 | 3.2 | 6.4 | 0.00 | 0.08 | 0.08 | 61 | 1006.2 |
| 20260509202731 | 19 | 63 | 3.2 | 4.8 | 0.00 | 0.08 | 0.08 | 61 | 1006.5 |
| 20260509202227 | 19 | 172 | 4.8 | 12.9 | 0.00 | 0.08 | 0.08 | 61 | 1006.2 |
| 20260509201721 | 19 | 172 | 4.8 | 12.9 | 0.00 | 0.08 | 0.08 | 61 | 1006.2 |
| 20260509201218 | 19 | 78 | 6.4 | 11.3 | 0.00 | 0.08 | 0.08 | 60 | 1006.3 |
| 20260509200715 | 19 | 78 | 6.4 | 11.3 | 0.00 | 0.08 | 0.08 | 60 | 1006.3 |
| 20260509200210 | 19 | 314 | 1.6 | 1.6 | 0.00 | 0.08 | 0.08 | 60 | 1006.4 |
| 20260509195705 | 20 | 125 | 1.6 | 1.6 | 0.00 | 0.08 | 0.08 | 61 | 1006.3 |
| 20260509195200 | 20 | 319 | 4.8 | 11.3 | 0.00 | 0.08 | 0.08 | 62 | 1006.4 |
| 20260509194655 | 18 | 318 | 4.8 | 6.4 | 0.00 | 0.08 | 0.08 | 62 | 1006.8 |
| 20260509194152 | 18 | 149 | 0.0 | 1.6 | 0.00 | 0.08 | 0.08 | 62 | 1006.7 |
| 20260509193649 | 18 | 308 | 4.8 | 4.8 | 0.00 | 0.08 | 0.08 | 62 | 1006.6 |
| 20260509193144 | 18 | 120 | 0.0 | 1.6 | 0.00 | 0.08 | 0.08 | 62 | 1006.7 |
| 20260509192641 | 18 | 120 | 0.0 | 1.6 | 0.00 | 0.08 | 0.08 | 62 | 1006.7 |
| 20260509192135 | 20 | 102 | 3.2 | 3.2 | 0.00 | 0.08 | 0.08 | 60 | 1006.6 |
| 20260509191630 | 19 | 191 | 0.0 | 1.6 | 0.00 | 0.08 | 0.08 | 62 | 1006.7 |
| 20260509191127 | 18 | 304 | 0.0 | 1.6 | 0.00 | 0.08 | 0.08 | 63 | 1006.5 |
| 20260509190623 | 18 | 326 | 6.4 | 6.4 | 0.00 | 0.08 | 0.08 | 62 | 1006.6 |
| 20260509190121 | 18 | 310 | 1.6 | 3.2 | 0.00 | 0.08 | 0.08 | 65 | 1006.7 |
| 20260509185618 | 18 | 125 | 0.0 | 1.6 | 0.00 | 0.08 | 0.08 | 63 | 1006.6 |
| 20260509185113 | 18 | 254 | 0.0 | 1.6 | 0.00 | 0.08 | 0.08 | 62 | 1006.6 |
| 20260509181141 | 17 | 319 | 3.2 | 4.8 | 0.00 | 0.08 | 0.08 | 63 | 1006.5 |
| 20260509180637 | 17 | 319 | 3.2 | 4.8 | 0.00 | 0.08 | 0.08 | 63 | 1006.5 |
| 20260509180133 | 17 | 319 | 3.2 | 4.8 | 0.00 | 0.08 | 0.08 | 63 | 1006.5 |
| 20260509174830 | 17 | 222 | 0.0 | 1.6 | 0.00 | 0.08 | 0.08 | 67 | 1006.7 |
| 20260509174326 | 17 | 222 | 0.0 | 1.6 | 0.00 | 0.08 | 0.08 | 67 | 1006.7 |
| 20260509173821 | 17 | 222 | 0.0 | 1.6 | 0.00 | 0.08 | 0.08 | 67 | 1006.7 |
| 20260509172311 | 16 | 340 | 1.6 | 1.6 | 0.00 | 0.08 | 0.08 | 71 | 1006.9 |
| 20260509171806 | 16 | 340 | 1.6 | 1.6 | 0.00 | 0.08 | 0.08 | 71 | 1006.9 |
| 20260509171302 | 16 | 230 | 0.0 | 1.6 | 0.00 | 0.08 | 0.08 | 73 | 1007.1 |
| 20260509170758 | 16 | 350 | 0.0 | 1.6 | 0.00 | 0.08 | 0.08 | 71 | 1007.2 |
| 20260509170255 | 16 | 273 | 0.0 | 1.6 | 0.00 | 0.08 | 0.08 | 72 | 1007.2 |
| 20260509165753 | 16 | 346 | 1.6 | 3.2 | 0.00 | 0.08 | 0.08 | 73 | 1007.2 |
| 20260509155956 | 15 | 222 | 0.0 | 0.0 | 0.00 | 0.08 | 0.08 | 78 | 1007.3 |
| 20260509155452 | 15 | 222 | 0.0 | 0.0 | 0.00 | 0.08 | 0.08 | 78 | 1007.3 |
| 20260509154949 | 15 | 220 | 0.0 | 0.0 | 0.00 | 0.08 | 0.08 | 79 | 1007.2 |
| 20260509154302 | 15 | 182 | 0.0 | 1.6 | 0.00 | 0.08 | 0.08 | 81 | 1007.5 |
| 20260509153759 | 15 | 182 | 0.0 | 1.6 | 0.00 | 0.08 | 0.08 | 81 | 1007.5 |
| 20260509153255 | 15 | 217 | 0.0 | 0.0 | 0.00 | 0.08 | 0.08 | 82 | 1006.9 |
| 20260509152752 | 15 | 220 | 0.0 | 0.0 | 0.00 | 0.08 | 0.08 | 79 | 1007.4 |
| 20260509152248 | 15 | 269 | 0.0 | 0.0 | 0.00 | 0.08 | 0.08 | 79 | 1007.3 |
| 20260509151745 | 15 | 218 | 0.0 | 0.0 | 0.00 | 0.08 | 0.08 | 79 | 1007.7 |
| 20260509151242 | 15 | 195 | 0.0 | 0.0 | 0.00 | 0.08 | 0.08 | 79 | 1007.3 |
| 20260509150740 | 14 | 254 | 0.0 | 0.0 | 0.00 | 0.08 | 0.08 | 82 | 1007.6 |
| 20260509150238 | 14 | 273 | 0.0 | 0.0 | 0.00 | 0.08 | 0.08 | 80 | 1007.4 |
| 20260509145735 | 14 | 156 | 4.8 | 9.7 | 0.00 | 0.08 | 0.08 | 82 | 1007.8 |
| 20260509145234 | 13 | 237 | 0.0 | 0.0 | 0.00 | 0.08 | 0.08 | 84 | 1007.6 |
| 20260509144731 | 14 | 278 | 0.0 | 0.0 | 0.00 | 0.08 | 0.08 | 84 | 1007.7 |
| 20260509144228 | 14 | 299 | 0.0 | 0.0 | 0.00 | 0.08 | 0.08 | 86 | 1007.6 |
| 20260509143725 | 13 | 235 | 0.0 | 0.0 | 0.00 | 0.08 | 0.08 | 84 | 1007.6 |
| 20260509143223 | 14 | 234 | 0.0 | 0.0 | 0.00 | 0.08 | 0.08 | 84 | 1007.7 |
| 20260509142718 | 14 | 232 | 0.0 | 0.0 | 0.00 | 0.08 | 0.08 | 84 | 1007.7 |
| 20260509142215 | 13 | 226 | 1.6 | 3.2 | 0.00 | 0.08 | 0.08 | 85 | 1007.7 |
| 20260509141711 | 13 | 180 | 1.6 | 1.6 | 0.00 | 0.08 | 0.08 | 88 | 1007.8 |
| 20260509141208 | 13 | 243 | 0.0 | 0.0 | 0.00 | 0.08 | 0.08 | 88 | 1007.6 |
| 20260509140704 | 13 | 227 | 0.0 | 0.0 | 0.00 | 0.08 | 0.08 | 89 | 1007.6 |
| 20260509140202 | 13 | 223 | 0.0 | 0.0 | 0.00 | 0.08 | 0.08 | 88 | 1007.6 |
| 20260509135659 | 13 | 238 | 0.0 | 0.0 | 0.00 | 0.08 | 0.08 | 88 | 1007.5 |
| 20260509135157 | 13 | 231 | 0.0 | 0.0 | 0.00 | 0.08 | 0.08 | 89 | 1007.7 |
| 20260509134653 | 13 | 242 | 0.0 | 0.0 | 0.00 | 0.08 | 0.08 | 91 | 1007.8 |
| 20260509134151 | 12 | 243 | 0.0 | 0.0 | 0.00 | 0.08 | 0.08 | 92 | 1007.9 |
| 20260509133648 | 12 | 242 | 0.0 | 0.0 | 0.00 | 0.08 | 0.08 | 91 | 1007.8 |
| 20260509133145 | 12 | 223 | 0.0 | 0.0 | 0.00 | 0.08 | 0.08 | 91 | 1007.9 |
| 20260509132643 | 12 | 235 | 0.0 | 0.0 | 0.00 | 0.08 | 0.08 | 92 | 1008.0 |
| 20260509132142 | 12 | 225 | 0.0 | 0.0 | 0.00 | 0.08 | 0.08 | 92 | 1008.1 |
| 20260509131637 | 12 | 204 | 0.0 | 1.6 | 0.00 | 0.08 | 0.08 | 92 | 1007.9 |
| 20260509131135 | 12 | 233 | 0.0 | 0.0 | 0.00 | 0.08 | 0.08 | 92 | 1008.2 |
| 20260509130630 | 12 | 242 | 0.0 | 0.0 | 0.00 | 0.08 | 0.08 | 92 | 1008.2 |
| 20260509130127 | 12 | 244 | 0.0 | 0.0 | 0.00 | 0.08 | 0.08 | 93 | 1008.3 |
| 20260509125623 | 12 | 246 | 0.0 | 0.0 | 0.00 | 0.08 | 0.08 | 94 | 1008.0 |
| 20260509125120 | 12 | 246 | 0.0 | 0.0 | 0.00 | 0.08 | 0.08 | 95 | 1008.0 |
| 20260509124617 | 12 | 190 | 0.0 | 0.0 | 0.00 | 0.08 | 0.08 | 95 | 1008.1 |
| 20260509124114 | 11 | 233 | 0.0 | 0.0 | 0.00 | 0.08 | 0.08 | 95 | 1008.1 |
| 20260509123612 | 11 | 241 | 0.0 | 0.0 | 0.00 | 0.08 | 0.08 | 96 | 1008.0 |
| 20260509123108 | 11 | 237 | 0.0 | 0.0 | 0.00 | 0.08 | 0.08 | 96 | 1008.0 |
| 20260509122604 | 11 | 252 | 0.0 | 0.0 | 0.00 | 0.08 | 0.08 | 97 | 1008.1 |
| 20260509122102 | 11 | 266 | 0.0 | 0.0 | 0.13 | 0.08 | 0.08 | 97 | 1008.3 |
| 20260509121558 | 11 | 266 | 0.0 | 0.0 | 0.13 | 0.08 | 0.08 | 97 | 1008.1 |
| 20260509121056 | 11 | 266 | 0.0 | 0.0 | 0.00 | 0.05 | 0.05 | 97 | 1008.2 |
| 20260509120554 | 11 | 225 | 0.0 | 0.0 | 0.00 | 0.05 | 0.05 | 97 | 1008.1 |
| 20260509120052 | 11 | 240 | 0.0 | 0.0 | 0.00 | 0.05 | 0.05 | 96 | 1008.3 |
| 20260509115548 | 11 | 230 | 0.0 | 0.0 | 0.00 | 0.05 | 0.05 | 95 | 1008.0 |
| 20260509115046 | 11 | 274 | 0.0 | 0.0 | 0.00 | 0.05 | 0.05 | 95 | 1008.1 |
| 20260509114544 | 11 | 264 | 0.0 | 0.0 | 0.00 | 0.05 | 0.05 | 95 | 1008.2 |
| 20260509114043 | 11 | 222 | 0.0 | 0.0 | 0.00 | 0.05 | 0.05 | 94 | 1008.2 |
| 20260509113541 | 11 | 274 | 0.0 | 0.0 | 0.00 | 0.05 | 0.05 | 94 | 1008.4 |
| 20260509113038 | 11 | 244 | 0.0 | 0.0 | 0.00 | 0.05 | 0.05 | 95 | 1008.4 |
| 20260509112534 | 11 | 239 | 0.0 | 0.0 | 0.00 | 0.05 | 0.05 | 93 | 1008.1 |
| 20260509112031 | 11 | 252 | 0.0 | 0.0 | 0.00 | 0.05 | 0.05 | 94 | 1008.1 |
| 20260509111528 | 11 | 242 | 0.0 | 0.0 | 0.00 | 0.05 | 0.05 | 94 | 1008.0 |
| 20260509111026 | 11 | 265 | 0.0 | 0.0 | 0.00 | 0.05 | 0.05 | 94 | 1008.0 |
| 20260509110522 | 11 | 256 | 0.0 | 0.0 | 0.00 | 0.05 | 0.05 | 94 | 1007.8 |
| 20260509110020 | 11 | 241 | 0.0 | 0.0 | 0.00 | 0.05 | 0.05 | 94 | 1007.9 |
| 20260509105518 | 10 | 238 | 0.0 | 0.0 | 0.00 | 0.05 | 0.05 | 93 | 1007.9 |
| 20260509105015 | 10 | 245 | 0.0 | 0.0 | 0.00 | 0.05 | 0.05 | 94 | 1007.7 |
| 20260509104512 | 10 | 291 | 0.0 | 0.0 | 0.00 | 0.05 | 0.05 | 93 | 1007.7 |
| 20260509104009 | 11 | 221 | 0.0 | 0.0 | 0.00 | 0.05 | 0.05 | 93 | 1007.9 |
| 20260509103507 | 11 | 240 | 0.0 | 0.0 | 0.00 | 0.05 | 0.05 | 94 | 1007.9 |
| 20260509103004 | 11 | 238 | 0.0 | 0.0 | 0.00 | 0.05 | 0.05 | 93 | 1007.7 |
| 20260509102502 | 11 | 214 | 0.0 | 0.0 | 0.00 | 0.05 | 0.05 | 91 | 1007.7 |
| 20260509101958 | 11 | 254 | 0.0 | 0.0 | 0.00 | 0.05 | 0.05 | 91 | 1007.7 |
| 20260509101454 | 11 | 252 | 0.0 | 0.0 | 0.00 | 0.05 | 0.05 | 91 | 1007.6 |
| 20260509100952 | 11 | 245 | 0.0 | 0.0 | 0.00 | 0.05 | 0.05 | 91 | 1007.7 |
| 20260509100449 | 11 | 175 | 0.0 | 0.0 | 0.00 | 0.05 | 0.05 | 89 | 1007.8 |
| 20260509095945 | 11 | 159 | 0.0 | 0.0 | 0.00 | 0.05 | 0.05 | 87 | 1008.0 |
| 20260509095442 | 11 | 230 | 0.0 | 0.0 | 0.00 | 0.05 | 0.05 | 89 | 1007.7 |
| 20260509094939 | 11 | 243 | 0.0 | 0.0 | 0.00 | 0.05 | 0.05 | 87 | 1008.0 |
| 20260509094436 | 11 | 232 | 0.0 | 0.0 | 0.00 | 0.05 | 0.05 | 86 | 1007.7 |
| 20260509093933 | 11 | 237 | 0.0 | 0.0 | 0.18 | 0.05 | 0.05 | 86 | 1008.1 |
| 20260509093431 | 11 | 234 | 0.0 | 0.0 | 0.18 | 0.05 | 0.05 | 85 | 1008.1 |
| 20260509092929 | 12 | 245 | 0.0 | 0.0 | 0.00 | 0.03 | 0.03 | 84 | 1007.9 |
| 20260509092426 | 12 | 249 | 0.0 | 0.0 | 0.00 | 0.03 | 0.03 | 84 | 1008.1 |
| 20260509091925 | 12 | 216 | 0.0 | 0.0 | 0.00 | 0.03 | 0.03 | 82 | 1008.0 |
| 20260509091421 | 12 | 273 | 0.0 | 0.0 | 0.00 | 0.03 | 0.03 | 82 | 1008.1 |
| 20260509090918 | 12 | 229 | 0.0 | 0.0 | 0.00 | 0.03 | 0.03 | 81 | 1008.2 |
| 20260509090416 | 12 | 39 | 0.0 | 0.0 | 0.00 | 0.03 | 0.03 | 79 | 1008.1 |
| 20260509085913 | 12 | 296 | 0.0 | 0.0 | 0.00 | 0.03 | 0.03 | 78 | 1008.1 |
| 20260509085410 | 12 | 297 | 1.6 | 1.6 | 0.00 | 0.03 | 0.03 | 77 | 1008.2 |
| 20260509084906 | 12 | 279 | 0.0 | 0.0 | 0.00 | 0.03 | 0.03 | 78 | 1008.3 |
| 20260509084403 | 12 | 263 | 0.0 | 0.0 | 0.00 | 0.03 | 0.03 | 78 | 1008.4 |
| 20260509083901 | 12 | 303 | 1.6 | 1.6 | 0.00 | 0.03 | 0.03 | 83 | 1008.4 |
| 20260509083358 | 12 | 232 | 0.0 | 0.0 | 0.00 | 0.03 | 0.03 | 83 | 1008.0 |
| 20260509082854 | 12 | 268 | 0.0 | 0.0 | 0.00 | 0.03 | 0.03 | 77 | 1008.0 |
| 20260509082351 | 12 | 300 | 0.0 | 0.0 | 0.00 | 0.03 | 0.03 | 78 | 1008.2 |
| 20260509081848 | 12 | 1 | 1.6 | 3.2 | 0.00 | 0.03 | 0.03 | 77 | 1008.2 |
| 20260509081346 | 12 | 342 | 1.6 | 4.8 | 0.00 | 0.03 | 0.03 | 81 | 1008.4 |
| 20260509080843 | 11 | 9 | 1.6 | 3.2 | 0.00 | 0.03 | 0.03 | 83 | 1008.4 |
| 20260509080341 | 11 | 336 | 0.0 | 0.0 | 0.00 | 0.03 | 0.03 | 88 | 1008.3 |
| 20260509075839 | 11 | 248 | 0.0 | 0.0 | 0.00 | 0.03 | 0.03 | 95 | 1008.4 |
| 20260509075336 | 11 | 271 | 0.0 | 0.0 | 0.00 | 0.03 | 0.03 | 95 | 1008.0 |
| 20260509074833 | 11 | 295 | 0.0 | 0.0 | 0.00 | 0.03 | 0.03 | 94 | 1007.9 |
| 20260509074331 | 11 | 261 | 0.0 | 0.0 | 0.00 | 0.03 | 0.03 | 95 | 1007.9 |
| 20260509073827 | 11 | 229 | 0.0 | 0.0 | 0.00 | 0.03 | 0.03 | 94 | 1007.7 |
| 20260509073323 | 11 | 242 | 0.0 | 0.0 | 0.00 | 0.03 | 0.03 | 94 | 1007.5 |
| 20260509072820 | 10 | 254 | 0.0 | 0.0 | 0.00 | 0.03 | 0.03 | 94 | 1007.4 |
| 20260509072316 | 11 | 279 | 0.0 | 0.0 | 0.00 | 0.03 | 0.03 | 93 | 1007.5 |
| 20260509071813 | 11 | 222 | 0.0 | 0.0 | 0.00 | 0.03 | 0.03 | 93 | 1007.4 |
| 20260509071310 | 11 | 187 | 0.0 | 0.0 | 0.00 | 0.03 | 0.03 | 92 | 1007.4 |
| 20260509070807 | 11 | 215 | 1.6 | 1.6 | 0.00 | 0.03 | 0.03 | 91 | 1007.6 |
| 20260509070304 | 11 | 3 | 0.0 | 0.0 | 0.00 | 0.03 | 0.03 | 89 | 1007.5 |
| 20260509065800 | 12 | 35 | 0.0 | 0.0 | 0.13 | 0.03 | 0.03 | 84 | 1007.5 |
| 20260509065256 | 12 | 250 | 0.0 | 0.0 | 0.13 | 0.03 | 0.03 | 80 | 1007.5 |
| 20260509064753 | 12 | 335 | 0.0 | 0.0 | 0.00 | 0.00 | 0.00 | 77 | 1007.5 |
| 20260509064250 | 13 | 262 | 0.0 | 0.0 | 0.00 | 0.00 | 0.00 | 75 | 1007.3 |
| 20260509063748 | 13 | 142 | 3.2 | 6.4 | 0.00 | 0.00 | 0.00 | 71 | 1007.5 |
| 20260509063244 | 13 | 311 | 0.0 | 0.0 | 0.00 | 0.00 | 0.00 | 69 | 1007.4 |
| 20260509062741 | 13 | 220 | 0.0 | 1.6 | 0.00 | 0.00 | 0.00 | 66 | 1007.5 |
| 20260509062238 | 13 | 209 | 0.0 | 1.6 | 0.00 | 0.00 | 0.00 | 65 | 1007.4 |
| 20260509061735 | 13 | 262 | 0.0 | 0.0 | 0.00 | 0.00 | 0.00 | 69 | 1007.4 |